Weather History for 41194 - October, 2013

Change the Weather History Date:

Tuesday, October 22, 2013

  Actual Average Record
Temperature  
Mean Temperature 84 °F -  
Max Temperature 91 °F 86 °F - ()
Min Temperature 78 °F 70 °F - ()
Cooling Degree Days 20    
Growing Degree Days 34 (Base 50)    
Moisture  
Dew Point 71 °F    
Average Humidity 63    
Maximum Humidity 84    
Minimum Humidity 36    
Precipitation  
Precipitation 0.00 in 0.00 in - ()
Sea Level Pressure  
Sea Level Pressure 29.83 in    
Wind  
Wind Speed 8 mph ()    
Max Wind Speed 15 mph    
Max Gust Speed -    
Visibility 5.5 miles    
Events      
T = Trace of Precipitation, MM = Missing Value Source: Averaged Metar Reports

Daily Weather History Graph

Daily Weather History Graph

Search for Another Location

Airport or City:

Trip Planner

Search our weather history database for the weather conditions in past years. The results will help you decide how hot, cold, wet, or windy it might be!

Date:

Astronomy

Oct. 22, 2013 Rise Set
Actual Time 6:20 AM GST 5:45 PM GST
Civil Twilight 5:57 AM GST 6:08 PM GST
Nautical Twilight 5:30 AM GST 6:35 PM GST
Astronomical Twilight 5:03 AM GST 7:01 PM GST
Moon 8:21 PM GST (10/22) 9:12 AM GST (10/22)
Length of Visible Light 12h 11m
Length of Day
11h 24m
Waning Gibbous, 89% of the Moon is Illuminated
Oct 22
Waning Gibbous
Oct 27
Last Quarter
Nov 3
New
Nov 10
First Quarter
Nov 17
Full

Hourly Weather History & Observations

Time (GST) Temp. Heat Index Dew Point Humidity Pressure Visibility Wind Dir Wind Speed Gust Speed Precip Events Conditions
12:00 AM 84.2 °F 92.3 °F 75.2 °F 74% 29.80 in - South 6.9 mph - N/A   Clear
1:00 AM 81 °F - 74 °F 74% 29.82 in 6 mi SSW 6.9 mph - -  
1:00 AM 80.6 °F 85.4 °F 73.4 °F 79% 29.80 in - SSW 6.9 mph - N/A   Clear
2:00 AM 80.6 °F 86.2 °F 75.2 °F 84% 29.80 in 6.2 mi South 6.9 mph - N/A   Partly Cloudy
3:00 AM 80.6 °F 85.4 °F 73.4 °F 79% 29.80 in 6.2 mi South 6.9 mph - N/A   Partly Cloudy
4:00 AM 79 °F - 74 °F 80% 29.80 in 6 mi South 8.1 mph - -   Scattered Clouds
4:00 AM 78.8 °F - 73.4 °F 83% 29.80 in 6.2 mi South 8.1 mph - N/A   Partly Cloudy
5:00 AM 78.8 °F - 73.4 °F 83% 29.80 in - South 6.9 mph - N/A   Clear
6:00 AM 78.8 °F - 73.4 °F 83% 29.80 in - South 8.1 mph - N/A   Clear
7:00 AM 79 °F - 74 °F 80% 29.83 in 4 mi South 8.1 mph - -   Haze
7:00 AM 78.8 °F - 73.4 °F 83% 29.83 in 4.3 mi South 8.1 mph - N/A   Unknown
8:00 AM 80.6 °F 86.2 °F 75.2 °F 84% 29.83 in 5.0 mi South 12.7 mph - N/A   Unknown
9:00 AM 84.2 °F 92.3 °F 75.2 °F 74% 29.86 in 4.3 mi South 10.4 mph - N/A   Unknown
10:00 AM 87 °F - 74 °F 58% 29.87 in 5 mi SSW 9.2 mph - -   Widespread Dust
10:00 AM 86.0 °F 95.1 °F 75.2 °F 70% 29.86 in 5.0 mi SSW 9.2 mph - N/A   Unknown
11:00 AM 91.4 °F 100.1 °F 73.4 °F 55% 29.86 in 5.0 mi West 11.5 mph - N/A   Unknown
12:00 PM 91.4 °F 98.4 °F 71.6 °F 52% 29.83 in - West 12.7 mph - N/A   Clear
1:00 PM 91 °F - 67 °F 36% 29.83 in 6 mi West 13.8 mph - -  
1:00 PM 91.4 °F 95.4 °F 68.0 °F 46% 29.83 in - West 13.8 mph - N/A   Clear
2:00 PM 89.6 °F 93.4 °F 68.0 °F 49% 29.80 in - West 15.0 mph - N/A   Clear
3:00 PM 89.6 °F 93.4 °F 68.0 °F 49% 29.80 in - West 13.8 mph - N/A   Clear
4:00 PM 88 °F - 69 °F 43% 29.81 in 6 mi West 15.0 mph - -  
4:00 PM 87.8 °F 91.4 °F 68.0 °F 52% 29.80 in - West 15.0 mph - N/A   Clear
5:00 PM 87.8 °F 91.4 °F 68.0 °F 52% 29.80 in - West 13.8 mph - N/A   Clear
6:00 PM 86.0 °F 88.2 °F 66.2 °F 51% 29.83 in - West 11.5 mph - N/A   Clear
7:00 PM 85 °F - 68 °F 48% 29.84 in 6 mi West 11.5 mph - -  
7:00 PM 84.2 °F 87.3 °F 68.0 °F 58% 29.83 in - West 11.5 mph - N/A   Clear
8:00 PM 84.2 °F 87.3 °F 68.0 °F 58% 29.86 in - West 11.5 mph - N/A   Clear
9:00 PM 84.2 °F 86.6 °F 66.2 °F 55% 29.86 in - West 10.4 mph - N/A   Clear
10:00 PM 84 °F - 66 °F 44% 29.88 in 6 mi West 9.2 mph - -  
10:00 PM 84.2 °F 86.6 °F 66.2 °F 55% 29.86 in - West 9.2 mph - N/A   Clear
11:00 PM 82.4 °F 83.9 °F 64.4 °F 54% 29.86 in - WSW 8.1 mph - N/A   Clear